Location: Bazugues
(43.4465°N, 0.3432°E)
Time: 07:17:19
(UTC+00:00)

Cosmos 1953 - Pass Details

Date: 12 January 2026
Orbit: 474 x 489 km, 82.5° (Epoch: 10 February)

Event Time Altitude Azimuth Distance (km) Brightness Sun altitude
Rises 17:14:41 0° 8° (N) 2,583 5.4 -5.7°
Reaches altitude 10° 17:17:22 10° 28° (NNE) 1,696 4.3 -6.2°
Maximum altitude 17:19:54 17° 72° (ENE) 1,299 3.6 -6.6°
Drops below altitude 10° 17:22:25 10° 115° (ESE) 1,687 4.4 -7.0°
Sets 17:25:05 0° 136° (SE) 2,562 5.5 -7.5°
